QPF
0.00 0.00 0.00 0.00 0.00 0.00 0.00 0.00 0.00 0.00 0.00 0.00 0.00 0.00 0.00 0.00 0.00 0.00 0.00 0.00 0.00 0.02 0.06 0.00 0.00 0.01 0.01 0.01 0.01 0.01 0.02 0.00 0.01 0.04 0.00 0.01 0.00 0.00 0.01 0.00 0.00 0.00
0.00 0.00 0.00 0.00 0.00 0.00 0.00 0.00 0.00 0.00 0.00 0.00 0.00 0.00 0.00 0.00 0.00 0.00 0.00 0.00 0.00 0.00 0.01 0.04 0.00 0.00 0.02 0.00 0.00 0.00 0.02 0.05 0.03 0.01 0.00 0.00 0.00 0.01 0.01 0.01 0.01 0.00
0.00 0.00 0.00 0.00 0.00 0.00 0.00 0.00 0.00 0.00 0.00 0.00 0.00 0.00 0.00 0.00 0.00 0.00 0.00 0.00 0.00 0.00 0.00 0.00 0.01 0.00 0.02 0.00 0.03 0.03 0.00 0.01 0.00 0.00 0.00 0.00 0.02 0.01 0.02 0.01 0.00 0.00
0.00 0.00 0.00 0.00 0.00 0.00 0.00 0.00 0.00 0.00 0.00 0.00 0.00 0.00 0.00 0.00 0.00 0.00 0.00 0.00 0.00 0.00 0.00 0.00 0.00 0.00 0.00 0.00 0.02 0.05 0.00 0.00 0.01 0.00 0.00 0.00 0.01 0.02 0.00 0.00 0.05 0.01
0.00 0.00 0.00 0.00 0.00 0.00 0.00 0.00 0.00 0.00 0.00 0.00 0.00 0.00 0.00 0.00 0.00 0.00 0.00 0.00 0.00 0.00 0.00 0.00 0.00 0.00 0.00 0.00 0.00 0.00 0.01 0.01 0.00 0.00 0.00 0.01 0.00 0.01 0.01 0.03 0.00 0.03
0.00 0.00 0.00 0.00 0.00 0.00 0.00 0.00 0.00 0.00 0.00 0.00 0.00 0.00 0.00 0.00 0.00 0.00 0.00 0.00 0.00 0.00 0.00 0.00 0.00 0.00 0.00 0.00 0.00 0.00 0.00 0.00 0.00 0.00 0.00 0.00 0.00 0.00 0.00 0.03 0.02 0.00
0.00 0.00 0.00 0.00 0.00 0.00 0.00 0.00 0.00 0.00 0.00 0.00 0.00 0.00 0.00 0.00 0.00 0.00 0.00 0.00 0.00 0.00 0.00 0.00 0.00 0.00 0.00 0.00 0.00 0.00 0.00 0.00 0.00 0.00 0.00 0.00 0.01 0.00 0.00 0.00 0.04 0.00
0.00 0.00 0.00 0.00 0.00 0.00 0.00 0.00 0.00 0.00 0.00 0.00 0.00 0.00 0.00 0.00 0.00 0.00 0.00 0.00 0.00 0.00 0.00 0.00 0.00 0.00 0.00 0.00 0.00 0.00 0.00 0.00 0.00 0.00 0.01 0.00 0.00 0.00 0.00 0.01 0.03 0.00
0.00 0.00 0.00 0.00 0.00 0.00 0.00 0.00 0.00 0.00 0.00 0.00 0.00 0.00 0.00 0.00 0.00 0.00 0.00 0.00 0.00 0.00 0.00 0.00 0.00 0.00 0.00 0.00 0.00 0.00 0.00 0.00 0.00 0.00 0.00 0.00 0.00 0.00 0.00 0.00 0.00 0.00
0.01 0.00 0.00 0.00 0.00 0.00 0.00 0.00 0.00 0.00 0.00 0.00 0.00 0.00 0.00 0.00 0.00 0.00 0.00 0.00 0.00 0.00 0.00 0.00 0.00 0.00 0.00 0.00 0.00 0.00 0.00 0.00 0.00 0.00 0.00 0.00 0.00 0.00 0.00 0.00 0.00 0.00
0.02 0.00 0.00 0.00 0.00 0.00 0.00 0.00 0.00 0.00 0.00 0.00 0.00 0.00 0.00 0.00 0.00 0.00 0.00 0.00 0.00 0.00 0.00 0.00 0.00 0.00 0.00 0.00 0.00 0.00 0.00 0.00 0.00 0.00 0.00 0.00 0.00 0.00 0.00 0.00 0.00 0.00
0.02 0.01 0.01 0.01 0.00 0.00 0.00 0.00 0.00 0.00 0.00 0.00 0.00 0.00 0.00 0.00 0.00 0.00 0.00 0.00 0.00 0.00 0.00 0.00 0.00 0.00 0.00 0.00 0.00 0.00 0.00 0.00 0.00 0.00 0.00 0.00 0.00 0.00 0.00 0.00 0.00 0.00
0.08 0.01 0.00 0.00 0.01 0.00 0.00 0.00 0.00 0.00 0.00 0.00 0.00 0.00 0.00 0.00 0.00 0.00 0.00 0.00 0.00 0.00 0.00 0.00 0.00 0.00 0.00 0.00 0.00 0.00 0.00 0.00 0.00 0.00 0.00 0.00 0.00 0.00 0.00 0.00 0.00 0.00
0.06 0.03 0.04 0.01 0.00 0.00 0.00 0.00 0.00 0.00 0.00 0.00 0.00 0.00 0.00 0.00 0.00 0.00 0.00 0.00 0.00 0.00 0.00 0.00 0.00 0.00 0.00 0.00 0.00 0.00 0.00 0.00 0.00 0.00 0.00 0.00 0.00 0.00 0.00 0.00 0.00 0.00
0.48 0.48 0.51 0.58 0.10 0.02 0.00 0.00 0.00 0.00 0.00 0.00 0.00 0.00 0.00 0.00 0.00 0.00 0.00 0.00 0.00 0.00 0.00 0.00 0.00 0.00 0.00 0.00 0.00 0.00 0.00 0.00 0.00 0.00 0.00 0.00 0.00 0.00 0.00 0.00 0.00 0.00
0.43 0.63 0.65 0.69 0.50 0.20 0.16 0.00 0.00 0.00 0.00 0.00 0.00 0.00 0.00 0.00 0.00 0.00 0.00 0.00 0.00 0.00 0.00 0.00 0.00 0.00 0.00 0.00 0.00 0.00 0.00 0.00 0.00 0.00 0.00 0.00 0.00 0.00 0.00 0.00 0.00 0.00
0.47 0.48 0.40 0.75 0.78 0.50 0.41 0.18 0.00 0.01 0.00 0.00 0.00 0.00 0.00 0.00 0.00 0.00 0.00 0.00 0.00 0.00 0.00 0.00 0.00 0.00 0.00 0.00 0.00 0.00 0.00 0.00 0.00 0.00 0.00 0.00 0.00 0.00 0.00 0.00 0.00 0.00
0.14 0.49 0.71 0.62 0.70 0.83 0.55 0.76 0.47 0.18 0.00 0.00 0.00 0.00 0.00 0.00 0.00 0.00 0.00 0.00 0.00 0.00 0.00 0.00 0.00 0.00 0.00 0.00 0.00 0.00 0.00 0.00 0.00 0.00 0.00 0.00 0.00 0.00 0.00 0.00 0.00 0.00
0.30 0.48 0.51 0.48 0.71 0.92 0.75 0.63 0.59 0.40 0.11 0.02 0.01 0.00 0.00 0.00 0.00 0.00 0.00 0.00 0.00 0.00 0.00 0.00 0.00 0.00 0.00 0.00 0.00 0.00 0.00 0.00 0.00 0.00 0.00 0.00 0.00 0.00 0.00 0.00 0.00 0.00
0.11 0.31 0.35 0.33 0.34 0.86 0.74 0.86 0.84 0.64 0.87 0.36 0.06 0.03 0.01 0.00 0.00 0.00 0.00 0.00 0.00 0.00 0.00 0.00 0.00 0.00 0.00 0.00 0.00 0.00 0.00 0.00 0.00 0.00 0.00 0.00 0.00 0.00 0.00 0.00 0.00 0.00
0.02 0.12 0.21 0.48 0.56 0.89 0.89 0.73 0.56 0.51 0.16 0.20 0.25 0.09 0.03 0.02 0.03 0.00 0.00 0.00 0.00 0.00 0.00 0.00 0.00 0.00 0.00 0.00 0.00 0.00 0.00 0.00 0.00 0.00 0.00 0.00 0.00 0.00 0.00 0.00 0.00 0.00
0.02 0.03 0.09 0.23 0.29 0.31 0.25 0.10 0.11 0.41 0.54 0.28 0.25 0.22 0.08 0.13 0.10 0.03 0.02 0.02 0.00 0.00 0.00 0.00 0.00 0.00 0.00 0.00 0.00 0.00 0.00 0.00 0.00 0.00 0.00 0.00 0.00 0.00 0.00 0.00 0.00 0.00
0.00 0.03 0.05 0.04 0.09 0.13 0.13 0.12 0.11 0.05 0.16 0.36 0.17 0.33 0.44 0.15 0.15 0.08 0.15 0.11 0.01 0.03 0.01 0.00 0.00 0.00 0.00 0.00 0.00 0.00 0.00 0.00 0.00 0.00 0.00 0.00 0.00 0.00 0.00 0.00 0.00 0.00
0.00 0.01 0.10 0.03 0.04 0.08 0.10 0.10 0.09 0.07 0.05 0.13 0.29 0.21 0.35 0.28 0.26 0.12 0.15 0.14 0.17 0.06 0.04 0.03 0.01 0.00 0.00 0.00 0.00 0.00 0.00 0.00 0.00 0.00 0.00 0.00 0.00 0.00 0.00 0.00 0.00 0.00
0.01 0.00 0.00 0.05 0.11 0.04 0.07 0.08 0.09 0.11 0.11 0.08 0.08 0.13 0.24 0.26 0.34 0.50 0.36 0.39 0.22 0.14 0.03 0.02 0.00 0.01 0.00 0.00 0.00 0.00 0.00 0.00 0.00 0.00 0.00 0.00 0.00 0.00 0.00 0.00 0.00 0.00
0.00 0.00 0.00 0.06 0.08 0.13 0.09 0.23 0.23 0.18 0.22 0.10 0.08 0.10 0.26 0.47 0.35 0.31 0.10 0.15 0.21 0.21 0.03 0.01 0.01 0.01 0.00 0.00 0.00 0.00 0.00 0.00 0.00 0.00 0.00 0.00 0.00 0.00 0.00 0.00 0.00 0.00
MSLP
1015.29 1015.45 1015.73 1015.85 1015.97 1016.01 1016.21 1016.49 1016.49 1016.65 1016.73 1016.73 1017.05 1016.97 1016.89 1016.81 1016.53 1016.69 1017.01 1017.21 1017.45 1017.69 1017.81 1017.93 1018.09 1018.25 1018.33 1018.53 1018.73 1018.97 1019.29 1019.49 1019.49 1019.45 1019.61 1019.61 1019.73 1019.77 1019.97 1019.81 1019.61 1019.73
1015.17 1015.29 1015.45 1015.57 1015.73 1015.77 1015.85 1015.89 1016.17 1016.33 1016.53 1016.41 1016.49 1016.57 1016.57 1016.53 1016.57 1016.57 1016.93 1017.21 1017.33 1017.57 1017.65 1017.77 1017.97 1018.13 1018.29 1018.53 1018.77 1019.09 1019.29 1019.45 1019.69 1019.17 1019.53 1019.57 1019.65 1019.69 1019.85 1019.73 1019.57 1019.49
1015.01 1015.21 1015.41 1015.61 1015.69 1015.77 1015.65 1015.61 1015.77 1016.01 1016.21 1016.17 1016.13 1016.21 1016.41 1016.37 1016.57 1016.61 1016.73 1017.01 1017.29 1017.33 1017.57 1017.65 1017.81 1017.97 1018.21 1018.37 1018.65 1018.93 1019.21 1019.41 1019.57 1019.25 1019.41 1019.61 1019.49 1019.65 1019.61 1019.53 1019.49 1019.49
1014.85 1014.93 1015.09 1015.21 1015.21 1015.41 1015.37 1015.53 1015.65 1015.77 1015.77 1016.13 1016.21 1016.01 1016.01 1016.09 1016.33 1016.65 1016.73 1016.85 1017.13 1017.21 1017.33 1017.49 1017.65 1017.81 1018.01 1018.25 1018.53 1018.85 1018.89 1019.05 1019.01 1018.97 1019.33 1019.33 1019.45 1019.53 1019.57 1019.53 1019.57 1019.53
1014.77 1014.85 1014.85 1014.93 1014.85 1014.97 1015.13 1015.37 1015.49 1015.61 1015.73 1015.73 1015.85 1015.85 1015.97 1016.09 1016.33 1016.57 1016.73 1016.93 1016.97 1017.13 1017.21 1017.41 1017.49 1017.69 1017.85 1018.09 1018.37 1018.81 1018.81 1018.89 1018.73 1018.81 1019.17 1019.45 1019.33 1019.33 1019.29 1019.41 1019.73 1019.89
1014.65 1014.65 1014.73 1014.85 1014.81 1014.93 1015.13 1015.17 1015.21 1015.29 1015.45 1015.49 1015.65 1015.61 1015.81 1015.93 1016.21 1016.41 1016.65 1016.89 1016.89 1016.97 1017.05 1017.17 1017.37 1017.45 1017.57 1017.89 1018.17 1018.49 1018.57 1018.73 1018.61 1018.77 1019.13 1019.37 1019.29 1019.05 1019.05 1019.33 1019.61 1019.81
1014.69 1014.77 1014.85 1014.73 1014.77 1014.73 1014.97 1014.93 1014.89 1014.89 1015.05 1015.05 1015.17 1015.49 1015.53 1015.93 1016.13 1016.25 1016.41 1016.61 1016.73 1016.85 1016.85 1017.05 1017.25 1017.37 1017.33 1017.61 1017.97 1018.25 1018.25 1018.33 1018.41 1018.65 1019.05 1019.17 1019.17 1019.21 1019.01 1019.29 1019.49 1019.61
1014.45 1014.53 1014.65 1014.69 1014.81 1014.77 1014.89 1014.81 1014.77 1014.77 1014.69 1014.85 1015.17 1015.21 1015.25 1015.61 1015.93 1015.93 1016.05 1016.33 1016.49 1016.69 1016.69 1016.73 1016.97 1017.13 1017.17 1017.33 1017.81 1018.09 1018.21 1018.01 1018.37 1018.65 1018.93 1019.01 1018.97 1019.21 1019.05 1019.01 1019.25 1019.45
1014.13 1014.37 1014.49 1014.61 1014.73 1014.65 1014.77 1014.65 1014.61 1014.57 1014.41 1014.73 1014.85 1014.89 1014.93 1015.13 1015.49 1015.69 1015.85 1016.05 1016.29 1016.37 1016.57 1016.65 1016.77 1016.93 1016.93 1017.09 1017.41 1017.73 1018.01 1017.93 1017.81 1018.29 1018.61 1018.85 1018.89 1018.85 1018.85 1018.81 1019.13 1019.33
1014.89 1014.13 1014.25 1014.37 1014.57 1014.41 1014.53 1014.37 1014.25 1014.37 1014.33 1014.45 1014.49 1014.45 1014.81 1014.89 1014.97 1015.29 1015.65 1015.93 1016.21 1016.29 1016.45 1016.53 1016.61 1016.73 1016.85 1016.89 1017.09 1017.29 1017.61 1017.81 1017.69 1017.77 1018.01 1018.21 1018.41 1018.49 1018.53 1018.61 1018.73 1018.93
1015.33 1015.17 1014.21 1014.17 1014.13 1014.05 1014.09 1014.05 1013.97 1014.05 1014.17 1014.29 1014.33 1014.37 1014.33 1014.65 1014.85 1014.89 1015.37 1015.77 1016.09 1016.17 1016.29 1016.45 1016.45 1016.53 1016.77 1016.85 1016.85 1016.89 1017.13 1017.37 1017.53 1017.61 1017.65 1017.77 1017.89 1018.01 1018.05 1018.17 1018.37 1018.53
1014.25 1015.09 1014.89 1013.93 1013.85 1013.69 1013.61 1013.65 1013.65 1013.69 1013.85 1014.05 1014.05 1014.29 1014.17 1014.25 1014.69 1014.77 1015.01 1015.49 1015.65 1015.81 1015.97 1016.17 1016.25 1016.33 1016.53 1016.65 1016.69 1016.73 1016.93 1017.05 1017.21 1017.37 1017.49 1017.53 1017.57 1017.61 1017.73 1017.77 1017.93 1018.05
1014.21 1014.17 1014.85 1014.17 1013.53 1013.41 1013.17 1013.21 1013.33 1013.29 1013.45 1013.77 1013.77 1013.97 1014.09 1014.13 1014.33 1014.69 1014.73 1015.01 1015.33 1015.49 1015.73 1015.89 1016.05 1016.13 1016.29 1016.45 1016.49 1016.53 1016.65 1016.89 1017.01 1017.13 1017.25 1017.33 1017.37 1017.37 1017.37 1017.45 1017.53 1017.61
1014.13 1014.37 1014.85 1015.17 1013.93 1013.29 1013.17 1013.01 1013.01 1013.01 1013.09 1013.21 1013.53 1013.89 1013.97 1013.97 1014.01 1014.37 1014.57 1014.69 1014.97 1015.21 1015.33 1015.45 1015.77 1015.97 1016.05 1016.13 1016.25 1016.33 1016.41 1016.57 1016.73 1016.85 1016.97 1017.05 1017.05 1017.05 1017.05 1017.05 1017.09 1017.17
1014.29 1014.77 1015.73 1016.25 1016.13 1014.13 1013.41 1013.17 1012.93 1012.89 1012.89 1013.05 1013.29 1013.61 1013.65 1013.69 1013.65 1013.73 1014.29 1014.69 1014.77 1015.01 1015.21 1015.21 1015.45 1015.65 1015.69 1015.85 1016.09 1016.17 1016.13 1016.25 1016.33 1016.45 1016.61 1016.77 1016.81 1016.77 1016.73 1016.73 1016.69 1016.65
1014.17 1014.49 1015.45 1016.17 1016.09 1016.25 1015.25 1013.81 1013.05 1012.89 1012.85 1013.05 1013.21 1013.33 1013.49 1013.61 1013.65 1013.65 1013.81 1014.29 1014.69 1014.89 1015.05 1015.13 1015.13 1015.05 1015.13 1015.29 1015.49 1015.73 1015.93 1015.89 1015.89 1016.01 1016.13 1016.29 1016.53 1016.61 1016.49 1016.37 1016.33 1016.29
1014.53 1014.69 1015.05 1015.57 1015.73 1015.69 1015.85 1016.05 1015.25 1013.89 1013.29 1013.29 1013.29 1013.29 1013.41 1013.53 1013.65 1013.85 1013.81 1013.73 1014.13 1014.53 1014.89 1014.93 1014.77 1014.57 1014.65 1014.97 1015.21 1015.33 1015.49 1015.73 1015.85 1015.89 1015.85 1015.97 1016.09 1016.29 1016.45 1016.21 1015.97 1015.89
1014.61 1014.77 1015.01 1015.25 1015.29 1015.37 1015.45 1015.65 1015.97 1016.41 1015.77 1014.57 1013.69 1013.53 1013.49 1013.37 1013.61 1013.73 1013.73 1013.65 1013.61 1013.89 1014.29 1014.45 1014.45 1014.25 1014.41 1014.69 1014.93 1015.09 1015.21 1015.37 1015.49 1015.65 1015.61 1015.73 1015.77 1015.89 1015.93 1015.89 1015.89 1015.77
1014.53 1014.61 1014.77 1014.89 1015.05 1015.01 1014.49 1014.29 1014.93 1015.81 1015.97 1016.05 1015.69 1014.45 1013.65 1013.69 1013.69 1013.61 1013.69 1013.65 1013.61 1013.69 1013.77 1013.81 1014.01 1013.89 1014.21 1014.37 1014.53 1014.69 1014.85 1014.97 1015.09 1015.21 1015.37 1015.37 1015.41 1015.53 1015.57 1015.65 1015.69 1015.77
1014.65 1014.73 1014.93 1014.81 1014.65 1014.61 1014.65 1014.49 1014.33 1014.45 1014.25 1014.33 1014.65 1015.09 1015.25 1014.73 1013.81 1013.61 1013.65 1013.73 1013.73 1013.69 1013.65 1013.45 1013.41 1013.41 1013.81 1014.09 1014.25 1014.37 1014.45 1014.61 1014.61 1014.69 1014.81 1014.89 1014.97 1015.05 1015.13 1015.33 1015.41 1015.57
1014.85 1014.81 1014.89 1014.85 1014.61 1014.45 1014.53 1014.73 1014.65 1014.85 1014.81 1014.45 1014.25 1014.17 1014.45 1014.69 1014.93 1014.69 1013.93 1013.61 1013.65 1013.61 1013.65 1013.61 1013.17 1013.01 1013.37 1013.61 1013.93 1014.21 1014.33 1014.49 1014.37 1014.37 1014.45 1014.53 1014.49 1014.45 1014.53 1014.65 1014.77 1014.89
1015.05 1015.05 1015.09 1015.09 1014.77 1014.61 1014.57 1014.73 1014.81 1014.73 1014.81 1014.69 1014.85 1014.89 1014.65 1014.53 1014.49 1014.53 1014.81 1014.57 1013.97 1013.65 1013.77 1013.81 1013.25 1013.05 1013.41 1013.57 1013.57 1013.77 1014.09 1014.41 1014.33 1014.49 1014.53 1014.45 1014.41 1014.29 1014.21 1014.13 1014.13 1014.25
1015.05 1015.05 1015.01 1015.01 1014.89 1014.77 1014.69 1014.65 1014.69 1014.69 1014.69 1014.61 1014.89 1014.89 1015.09 1015.25 1014.93 1014.45 1014.45 1014.85 1015.17 1015.09 1014.89 1013.93 1013.49 1013.13 1013.29 1013.53 1013.73 1013.89 1014.25 1014.29 1014.25 1014.33 1014.45 1014.45 1014.33 1014.17 1014.09 1014.05 1013.97 1013.97
1015.13 1015.01 1015.01 1014.89 1014.93 1014.97 1014.77 1014.65 1014.45 1014.29 1014.29 1014.05 1014.37 1014.53 1014.61 1014.49 1014.57 1014.73 1014.57 1014.29 1014.21 1014.25 1014.61 1015.09 1014.21 1013.13 1013.09 1013.37 1013.49 1013.65 1014.01 1014.17 1014.21 1014.33 1014.37 1014.33 1014.25 1014.05 1013.97 1013.97 1013.85 1013.81
1015.05 1014.93 1014.89 1014.93 1014.89 1014.81 1014.73 1014.77 1014.61 1014.45 1014.13 1013.85 1013.73 1013.77 1013.89 1013.89 1014.13 1014.37 1014.37 1014.29 1013.97 1013.57 1013.17 1013.69 1014.13 1013.61 1012.97 1013.05 1013.17 1013.37 1013.69 1013.65 1013.77 1014.09 1014.33 1014.25 1014.21 1014.21 1013.93 1013.89 1013.81 1013.69
1014.93 1014.89 1014.81 1014.85 1014.85 1014.69 1014.57 1014.57 1014.45 1014.41 1014.29 1014.21 1014.13 1013.93 1013.93 1013.93 1014.01 1014.29 1014.61 1014.49 1014.29 1014.05 1013.37 1012.85 1012.89 1012.89 1012.53 1012.61 1012.81 1013.05 1013.21 1013.21 1013.33 1013.81 1014.13 1014.05 1013.97 1014.05 1014.17 1013.93 1013.73 1013.65
Thickness
5807 5807 5806 5807 5807 5808 5809 5808 5808 5809 5808 5809 5809 5809 5812 5814 5816 5816 5813 5812 5810 5808 5808 5807 5806 5805 5805 5804 5803 5801 5799 5798 5798 5799 5799 5798 5798 5797 5797 5799 5800 5799
5808 5808 5807 5808 5808 5808 5810 5811 5811 5810 5810 5811 5812 5812 5813 5814 5815 5816 5814 5813 5812 5810 5809 5808 5808 5807 5806 5805 5803 5801 5799 5798 5799 5800 5800 5799 5799 5798 5798 5800 5802 5801
5808 5808 5808 5808 5809 5809 5810 5813 5813 5812 5812 5813 5814 5814 5814 5815 5815 5815 5815 5814 5813 5812 5811 5810 5809 5809 5807 5806 5805 5802 5801 5799 5800 5802 5800 5800 5800 5799 5799 5802 5803 5803
5808 5809 5809 5810 5812 5812 5812 5813 5812 5813 5814 5813 5814 5815 5817 5817 5815 5815 5815 5814 5813 5813 5813 5812 5811 5810 5808 5808 5806 5804 5804 5802 5803 5804 5802 5801 5801 5800 5801 5802 5802 5802
5808 5809 5810 5811 5813 5814 5814 5814 5813 5814 5815 5815 5815 5817 5817 5817 5816 5815 5815 5814 5814 5814 5814 5813 5812 5811 5810 5808 5807 5806 5805 5805 5806 5806 5803 5801 5802 5802 5803 5803 5801 5801
5807 5808 5810 5811 5814 5815 5814 5815 5816 5816 5816 5817 5818 5818 5817 5817 5816 5816 5815 5814 5814 5814 5814 5814 5813 5813 5812 5810 5808 5807 5807 5806 5807 5807 5804 5803 5803 5804 5805 5804 5801 5801
5805 5806 5808 5810 5812 5814 5814 5816 5817 5819 5819 5819 5820 5819 5819 5818 5816 5816 5816 5815 5815 5815 5815 5815 5814 5814 5813 5812 5810 5808 5809 5809 5808 5807 5805 5804 5804 5804 5806 5805 5803 5803
5805 5805 5806 5808 5810 5811 5814 5816 5817 5820 5821 5821 5820 5820 5821 5819 5818 5818 5818 5817 5817 5816 5817 5817 5816 5816 5815 5814 5811 5809 5809 5810 5809 5807 5805 5805 5806 5805 5806 5806 5805 5804
5804 5807 5807 5807 5808 5810 5813 5815 5818 5820 5822 5821 5821 5821 5822 5822 5820 5820 5819 5819 5818 5817 5818 5818 5817 5817 5817 5816 5814 5811 5810 5811 5812 5810 5807 5807 5807 5807 5808 5808 5806 5806
5799 5804 5807 5807 5808 5810 5812 5815 5818 5820 5820 5821 5822 5823 5823 5823 5823 5823 5820 5819 5818 5817 5818 5818 5818 5818 5818 5818 5817 5815 5813 5812 5813 5813 5811 5810 5810 5809 5810 5810 5809 5808
5799 5799 5804 5808 5809 5811 5813 5815 5818 5820 5821 5821 5822 5823 5824 5824 5824 5824 5822 5819 5818 5818 5818 5818 5819 5819 5819 5818 5819 5818 5816 5814 5814 5814 5813 5813 5813 5812 5813 5812 5812 5811
5803 5799 5800 5806 5811 5813 5815 5817 5819 5821 5822 5821 5822 5823 5824 5825 5824 5824 5824 5821 5820 5820 5820 5819 5819 5820 5819 5819 5819 5819 5818 5817 5816 5815 5814 5814 5814 5814 5814 5815 5814 5814
5802 5800 5799 5803 5810 5814 5816 5817 5820 5822 5823 5823 5823 5823 5824 5825 5825 5824 5824 5823 5822 5821 5820 5820 5820 5820 5820 5820 5820 5821 5820 5818 5817 5817 5816 5816 5815 5816 5816 5816 5816 5816
5798 5796 5792 5792 5801 5810 5814 5817 5820 5821 5824 5824 5824 5823 5823 5825 5826 5824 5824 5823 5823 5822 5822 5821 5820 5820 5820 5820 5820 5821 5821 5820 5820 5819 5818 5818 5817 5818 5818 5818 5819 5819
5796 5793 5785 5781 5787 5798 5807 5814 5818 5820 5822 5823 5823 5822 5822 5824 5826 5826 5825 5822 5822 5822 5821 5822 5821 5821 5821 5821 5821 5821 5821 5822 5822 5822 5821 5820 5820 5820 5820 5821 5822 5822
5795 5794 5788 5782 5782 5786 5792 5800 5810 5815 5818 5818 5819 5820 5821 5822 5823 5824 5825 5823 5822 5820 5820 5821 5822 5823 5824 5823 5822 5822 5822 5823 5823 5824 5824 5823 5823 5822 5822 5824 5824 5825
5791 5791 5789 5786 5785 5785 5785 5787 5793 5800 5807 5811 5815 5816 5817 5819 5820 5821 5823 5824 5823 5820 5820 5820 5822 5825 5825 5823 5822 5822 5822 5822 5823 5824 5825 5825 5824 5824 5823 5825 5827 5827
5786 5787 5787 5786 5786 5788 5790 5789 5787 5786 5789 5796 5804 5810 5813 5816 5817 5817 5819 5822 5823 5822 5820 5821 5823 5825 5825 5823 5822 5821 5821 5822 5822 5823 5824 5824 5825 5825 5825 5826 5827 5828
5783 5784 5784 5784 5786 5789 5794 5797 5795 5792 5789 5789 5794 5801 5806 5810 5814 5816 5816 5818 5820 5821 5821 5822 5823 5824 5824 5822 5822 5821 5821 5821 5822 5823 5823 5824 5825 5825 5825 5826 5825 5826
5780 5781 5780 5781 5786 5789 5791 5794 5797 5798 5800 5799 5799 5799 5800 5803 5808 5812 5814 5815 5817 5818 5819 5822 5824 5825 5824 5822 5821 5820 5819 5821 5822 5823 5824 5824 5825 5825 5825 5825 5825 5825
5776 5777 5777 5778 5782 5786 5787 5788 5790 5792 5795 5798 5800 5799 5798 5800 5801 5804 5808 5812 5815 5816 5815 5818 5822 5824 5823 5822 5821 5819 5817 5818 5820 5822 5823 5824 5825 5826 5826 5826 5826 5825
5772 5773 5773 5775 5778 5782 5783 5784 5785 5787 5788 5789 5790 5791 5792 5794 5796 5799 5801 5803 5807 5810 5811 5814 5819 5821 5820 5819 5820 5817 5815 5816 5817 5819 5820 5821 5822 5823 5824 5826 5826 5826
5768 5770 5771 5772 5775 5777 5779 5781 5783 5784 5785 5787 5786 5786 5786 5786 5789 5793 5797 5798 5800 5801 5802 5806 5813 5817 5817 5816 5817 5814 5812 5813 5815 5816 5817 5817 5820 5821 5822 5824 5825 5825
5763 5766 5768 5770 5772 5773 5775 5778 5781 5783 5785 5787 5788 5788 5789 5789 5789 5791 5794 5798 5802 5803 5802 5801 5805 5812 5814 5814 5814 5812 5810 5811 5812 5812 5813 5815 5817 5818 5820 5821 5822 5823
5759 5763 5765 5767 5769 5770 5771 5773 5776 5780 5784 5786 5789 5790 5791 5792 5793 5791 5790 5793 5796 5801 5806 5805 5804 5809 5813 5813 5812 5811 5810 5811 5810 5809 5810 5812 5814 5814 5816 5818 5819 5821
5754 5758 5761 5764 5765 5767 5769 5770 5772 5776 5778 5781 5784 5785 5787 5788 5788 5787 5786 5787 5788 5791 5799 5804 5806 5810 5813 5813 5812 5810 5809 5810 5809 5808 5808 5809 5810 5811 5811 5813 5816 5818